| time (UTC) | temp F | wind direction | speed knots | gust knots | rain 1hr in | rain 24hr in | rain mn in | humidity % | barometer mb |
| 20260506124507 | 46 | 226 | 0.9 | 7.0 | 0.00 | 0.05 | 0.00 | 72 | 1018.3 |
| 20260506123506 | 46 | 249 | 1.7 | 2.6 | 0.00 | 0.05 | 0.00 | 72 | 1018.3 |
| 20260506123010 | 46 | 204 | 1.7 | 6.1 | 0.00 | 0.05 | 0.00 | 72 | 1018.3 |
| 20260506122507 | 46 | 172 | 0.9 | 6.1 | 0.00 | 0.05 | 0.00 | 72 | 1018.3 |
| 20260506122008 | 46 | 247 | 1.7 | 6.1 | 0.00 | 0.05 | 0.00 | 72 | 1018.3 |
| 20260506121506 | 46 | 164 | 2.6 | 6.1 | 0.00 | 0.05 | 0.00 | 72 | 1018.3 |
| 20260506121009 | 46 | 168 | 0.9 | 7.0 | 0.00 | 0.02 | 0.00 | 72 | 1018.3 |
| 20260506120507 | 46 | 178 | 3.5 | 7.8 | 0.00 | 0.02 | 0.00 | 72 | 1018.3 |
| 20260506115507 | 46 | 150 | 2.6 | 7.0 | 0.00 | 0.02 | 0.00 | 72 | 1018.3 |
| 20260506113507 | 46 | 109 | 2.6 | 8.7 | 0.00 | 0.02 | 0.00 | 72 | 1018.3 |
| 20260506113008 | 46 | 169 | 2.6 | 8.7 | 0.00 | 0.02 | 0.00 | 72 | 1018.3 |
| 20260506112509 | 46 | 131 | 2.6 | 7.8 | 0.00 | 0.02 | 0.00 | 72 | 1018.3 |
| 20260506112011 | 46 | 155 | 5.2 | 7.8 | 0.00 | 0.02 | 0.00 | 72 | 1018.3 |
| 20260506111510 | 46 | 155 | 1.7 | 6.1 | 0.00 | 0.02 | 0.00 | 72 | 1018.3 |
| 20260506111012 | 46 | 251 | 1.7 | 6.1 | 0.00 | 0.02 | 0.00 | 72 | 1018.3 |
| 20260506110527 | 46 | 94 | 1.7 | 7.0 | 0.00 | 0.02 | 0.00 | 72 | 1018.3 |
| 20260506110007 | 46 | 146 | 1.7 | 7.8 | 0.00 | 0.02 | 0.00 | 72 | 1018.3 |
| 20260506105518 | 46 | 124 | 3.5 | 8.7 | 0.00 | 0.02 | 0.00 | 72 | 1018.3 |
| 20260506105009 | 46 | 109 | 5.2 | 8.7 | 0.00 | 0.02 | 0.00 | 72 | 1018.3 |
| 20260506104509 | 46 | 149 | 2.6 | 7.8 | 0.00 | 0.02 | 0.00 | 72 | 1018.3 |
| 20260506104008 | 46 | 137 | 2.6 | 7.8 | 0.00 | 0.02 | 0.00 | 72 | 1018.3 |
| 20260506103507 | 46 | 208 | 1.7 | 6.1 | 0.00 | 0.02 | 0.00 | 72 | 1018.3 |
| 20260506103010 | 46 | 181 | 2.6 | 6.1 | 0.00 | 0.02 | 0.00 | 72 | 1018.3 |
| 20260506102507 | 46 | 161 | 0.9 | 6.1 | 0.00 | 0.02 | 0.00 | 72 | 1018.3 |
| 20260506102008 | 46 | 208 | 2.6 | 6.1 | 0.00 | 0.02 | 0.00 | 72 | 1018.3 |
| 20260506101506 | 46 | 97 | 3.5 | 5.2 | 0.00 | 0.02 | 0.00 | 72 | 1018.3 |
| 20260506101009 | 46 | 92 | 1.7 | 5.2 | 0.00 | 0.02 | 0.00 | 72 | 1018.3 |
| 20260506100507 | 46 | 54 | 2.6 | 5.2 | 0.00 | 0.02 | 0.00 | 72 | 1018.3 |
| 20260506100007 | 46 | 233 | 1.7 | 7.0 | 0.00 | 0.02 | 0.00 | 72 | 1018.3 |
| 20260506095507 | 46 | 154 | 3.5 | 7.0 | 0.00 | 0.02 | 0.00 | 72 | 1018.3 |
| 20260506094507 | 46 | 172 | 2.6 | 5.2 | 0.00 | 0.02 | 0.00 | 72 | 1018.3 |
| 20260506093507 | 46 | 136 | 2.6 | 6.1 | 0.00 | 0.02 | 0.00 | 72 | 1018.3 |
| 20260506093006 | 46 | 162 | 1.7 | 6.1 | 0.00 | 0.02 | 0.00 | 72 | 1018.3 |
| 20260506092506 | 46 | 207 | 0.9 | 2.6 | 0.00 | 0.02 | 0.00 | 72 | 1018.3 |
| 20260506092006 | 46 | 285 | 0.0 | 2.6 | 0.00 | 0.02 | 0.00 | 72 | 1018.3 |
| 20260506091506 | 46 | 171 | 1.7 | 4.3 | 0.00 | 0.02 | 0.00 | 72 | 1018.3 |
| 20260506090007 | 46 | 165 | 1.7 | 2.6 | 0.00 | 0.02 | 0.00 | 72 | 1018.3 |
| 20260506085514 | 46 | 123 | 1.7 | 6.1 | 0.00 | 0.02 | 0.00 | 72 | 1018.3 |
| 20260506085006 | 46 | 123 | 2.6 | 6.1 | 0.00 | 0.02 | 0.00 | 72 | 1018.3 |
| 20260506084506 | 46 | 169 | 0.9 | 2.6 | 0.02 | 0.02 | 0.00 | 72 | 1018.3 |
| 20260506084007 | 46 | 108 | 1.7 | 5.2 | 0.00 | 0.02 | 0.00 | 72 | 1018.3 |
| 20260506083007 | 46 | 126 | 2.6 | 8.7 | 0.00 | 0.02 | 0.00 | 72 | 1018.3 |
| 20260506082507 | 46 | 119 | 3.5 | 8.7 | 0.00 | 0.02 | 0.00 | 72 | 1018.3 |
| 20260506082007 | 46 | 94 | 2.6 | 8.7 | 0.00 | 0.02 | 0.00 | 72 | 1018.3 |
| 20260506081507 | 46 | 123 | 2.6 | 5.2 | 0.00 | 0.02 | 0.00 | 72 | 1018.3 |
| 20260506081010 | 46 | 165 | 0.9 | 2.6 | 0.00 | 0.02 | 0.00 | 72 | 1018.3 |
| 20260506080507 | 46 | 135 | 0.9 | 2.6 | 0.00 | 0.02 | 0.00 | 72 | 1018.3 |
| 20260506073507 | 46 | 221 | 0.0 | 1.7 | 0.00 | 0.00 | 0.00 | 72 | 1018.3 |
| 20260506073006 | 46 | 223 | 0.0 | 1.7 | 0.00 | 0.00 | 0.00 | 72 | 1018.3 |
| 20260506072506 | 46 | 223 | 0.0 | 1.7 | 0.00 | 0.00 | 0.00 | 72 | 1018.3 |
| 20260506072006 | 46 | 229 | 0.9 | 1.7 | 0.00 | 0.00 | 0.00 | 72 | 1018.3 |
| 20260506071506 | 46 | 244 | 0.9 | 2.6 | 0.00 | 0.02 | 0.00 | 72 | 1018.3 |
| 20260506071007 | 46 | 212 | 0.9 | 2.6 | 0.00 | 0.02 | 0.00 | 72 | 1018.3 |
| 20260506061506 | 46 | 290 | 0.0 | 0.0 | 0.00 | 0.02 | 0.00 | 72 | 1018.3 |
| 20260506060506 | 46 | 290 | 0.0 | 0.0 | 0.00 | 0.03 | 0.00 | 72 | 1018.3 |
| 20260506051010 | 46 | 236 | 0.0 | 0.9 | 0.00 | 0.03 | 0.00 | 72 | 1018.3 |
| 20260506050508 | 46 | 235 | 0.0 | 0.0 | 0.00 | 0.03 | 0.00 | 72 | 1018.3 |
| 20260506045010 | 46 | 235 | 0.0 | 1.7 | 0.00 | 0.03 | 0.00 | 72 | 1018.3 |
| 20260506044507 | 46 | 235 | 0.0 | 1.7 | 0.00 | 0.03 | 0.00 | 72 | 1018.3 |
| 20260506044010 | 46 | 248 | 0.0 | 1.7 | 0.00 | 0.03 | 0.00 | 72 | 1018.3 |
| 20260506043507 | 46 | 262 | 0.9 | 1.7 | 0.00 | 0.03 | 0.00 | 72 | 1018.3 |
| 20260506043010 | 46 | 289 | 0.0 | 1.7 | 0.00 | 0.03 | 0.00 | 72 | 1018.3 |
| 20260506042506 | 46 | 289 | 0.0 | 1.7 | 0.00 | 0.03 | 0.00 | 72 | 1018.3 |
| 20260506042009 | 46 | 108 | 0.0 | 0.9 | 0.00 | 0.03 | 0.00 | 72 | 1018.3 |
| 20260506041507 | 46 | 108 | 0.0 | 5.2 | 0.00 | 0.03 | 0.00 | 72 | 1018.3 |
| 20260506040507 | 46 | 108 | 0.0 | 5.2 | 0.00 | 0.03 | 0.00 | 72 | 1018.3 |
| 20260506035507 | 46 | 108 | 0.0 | 5.2 | 0.00 | 0.03 | 0.00 | 72 | 1018.3 |
| 20260506035013 | 46 | 108 | 0.0 | 5.2 | 0.00 | 0.03 | 0.00 | 72 | 1018.3 |
| 20260506034011 | 46 | 108 | 0.0 | 5.2 | 0.00 | 0.03 | 0.00 | 72 | 1018.3 |
| 20260506033510 | 46 | 108 | 0.0 | 5.2 | 0.00 | 0.03 | 0.00 | 72 | 1018.3 |
| 20260506033011 | 46 | 93 | 0.0 | 5.2 | 0.00 | 0.03 | 0.00 | 72 | 1018.3 |
| 20260506031506 | 46 | 304 | 0.0 | 0.0 | 0.00 | 0.03 | 0.00 | 72 | 1018.3 |
| 20260506030509 | 46 | 304 | 0.0 | 2.6 | 0.00 | 0.03 | 0.00 | 72 | 1018.3 |
| 20260506030007 | 46 | 304 | 0.9 | 2.6 | 0.00 | 0.03 | 0.00 | 72 | 1018.3 |
| 20260506025507 | 46 | 300 | 0.9 | 5.2 | 0.00 | 0.03 | 0.00 | 72 | 1018.3 |
| 20260506025009 | 46 | 232 | 0.0 | 5.2 | 0.00 | 0.03 | 0.00 | 72 | 1018.3 |
| 20260506024507 | 46 | 259 | 0.0 | 1.7 | 0.00 | 0.03 | 0.00 | 72 | 1018.3 |
| 20260506024013 | 46 | 300 | 0.0 | 0.0 | 0.00 | 0.03 | 0.00 | 72 | 1018.3 |
| 20260506023509 | 46 | 300 | 0.0 | 0.0 | 0.00 | 0.03 | 0.00 | 72 | 1018.3 |
| 20260506023008 | 46 | 300 | 0.0 | 0.0 | 0.00 | 0.03 | 0.00 | 72 | 1018.3 |
| 20260506022508 | 46 | 300 | 0.0 | 0.0 | 0.00 | 0.03 | 0.00 | 72 | 1018.3 |
| 20260506022010 | 46 | 300 | 0.0 | 0.0 | 0.00 | 0.03 | 0.00 | 72 | 1018.3 |
| 20260506021506 | 46 | 300 | 0.0 | 0.0 | 0.00 | 0.03 | 0.00 | 72 | 1018.3 |
| 20260506021009 | 46 | 300 | 0.0 | 0.0 | 0.00 | 0.03 | 0.00 | 72 | 1018.3 |
| 20260506020507 | 46 | 300 | 0.0 | 0.0 | 0.00 | 0.03 | 0.00 | 72 | 1018.3 |
| 20260506020007 | 46 | 300 | 0.0 | 0.0 | 0.00 | 0.04 | 0.00 | 72 | 1018.3 |
| 20260506015013 | 46 | 300 | 0.0 | 0.0 | 0.00 | 0.04 | 0.00 | 72 | 1018.3 |
| 20260506014521 | 46 | 300 | 0.0 | 0.0 | 0.00 | 0.04 | 0.00 | 72 | 1018.3 |
| 20260506014041 | 46 | 300 | 0.0 | 0.0 | 0.00 | 0.04 | 0.00 | 72 | 1018.3 |
| 20260506013509 | 46 | 300 | 0.0 | 0.0 | 0.00 | 0.04 | 0.00 | 72 | 1018.3 |
| 20260506013209 | 46 | 300 | 0.0 | 0.0 | 0.00 | 0.04 | 0.00 | 72 | 1018.3 |
| 20260506012508 | 46 | 300 | 0.0 | 0.0 | 0.00 | 0.04 | 0.00 | 72 | 1018.3 |
| 20260506012009 | 46 | 300 | 0.0 | 0.0 | 0.00 | 0.04 | 0.00 | 72 | 1018.3 |
| 20260506011009 | 46 | 300 | 0.0 | 0.0 | 0.00 | 0.04 | 0.00 | 72 | 1018.3 |
| 20260506010507 | 46 | 300 | 0.0 | 0.0 | 0.00 | 0.04 | 0.00 | 72 | 1018.3 |
| 20260506010006 | 46 | 300 | 0.0 | 0.0 | 0.00 | 0.04 | 0.00 | 72 | 1018.3 |
| 20260506005506 | 46 | 300 | 0.0 | 0.0 | 0.00 | 0.04 | 0.00 | 72 | 1018.3 |
| 20260506005006 | 46 | 300 | 0.0 | 0.0 | 0.00 | 0.04 | 0.00 | 72 | 1018.3 |
| 20260506004011 | 46 | 300 | 0.0 | 0.0 | 0.00 | 0.04 | 0.00 | 72 | 1018.3 |
| 20260506003506 | 46 | 300 | 0.0 | 0.0 | 0.00 | 0.04 | 0.00 | 72 | 1018.3 |
| 20260506003006 | 46 | 300 | 0.0 | 0.0 | 0.00 | 0.04 | 0.00 | 72 | 1018.3 |
| 20260506002505 | 46 | 300 | 0.0 | 0.0 | 0.00 | 0.04 | 0.00 | 72 | 1018.3 |
| 20260506001505 | 46 | 300 | 0.0 | 1.7 | 0.00 | 0.04 | 0.00 | 72 | 1018.3 |
| 20260506001006 | 46 | 300 | 0.0 | 1.7 | 0.00 | 0.04 | 0.00 | 72 | 1018.3 |
| 20260506000506 | 46 | 300 | 0.9 | 1.7 | 0.00 | 0.04 | 0.00 | 72 | 1018.3 |
| 20260506000008 | 46 | 303 | 0.9 | 2.6 | 0.00 | 0.04 | 0.00 | 72 | 1018.3 |
| 20260505235507 | 46 | 299 | 0.9 | 2.6 | 0.00 | 0.04 | 0.00 | 72 | 1018.3 |
| 20260505234507 | 46 | 336 | 0.0 | 0.9 | 0.00 | 0.04 | 0.00 | 72 | 1018.3 |
| 20260505233007 | 46 | 347 | 0.9 | 2.6 | 0.00 | 0.05 | 0.00 | 72 | 1018.3 |
| 20260505232506 | 46 | 326 | 0.9 | 2.6 | 0.00 | 0.05 | 0.00 | 72 | 1018.3 |
| 20260505232006 | 46 | 326 | 0.9 | 2.6 | 0.00 | 0.05 | 0.00 | 72 | 1018.3 |
| 20260505231506 | 46 | 329 | 1.7 | 2.6 | 0.00 | 0.05 | 0.00 | 72 | 1018.3 |
| 20260505231008 | 46 | 331 | 1.7 | 2.6 | 0.00 | 0.05 | 0.00 | 72 | 1018.3 |
| 20260505230508 | 46 | 309 | 0.0 | 2.6 | 0.00 | 0.05 | 0.00 | 72 | 1018.3 |
| 20260505225507 | 46 | 267 | 0.9 | 1.7 | 0.00 | 0.06 | 0.02 | 72 | 1018.3 |
| 20260505225007 | 46 | 156 | 0.0 | 0.0 | 0.00 | 0.06 | 0.02 | 72 | 1018.3 |
| 20260505224506 | 46 | 156 | 0.0 | 0.0 | 0.00 | 0.06 | 0.02 | 72 | 1018.3 |
| 20260505223506 | 46 | 156 | 0.0 | 1.7 | 0.00 | 0.06 | 0.02 | 72 | 1018.3 |
| 20260505222507 | 46 | 65 | 0.9 | 2.6 | 0.00 | 0.06 | 0.02 | 72 | 1018.3 |
| 20260505221506 | 46 | 17 | 0.9 | 2.6 | 0.00 | 0.06 | 0.02 | 72 | 1018.3 |
| 20260505221007 | 46 | 24 | 0.9 | 2.6 | 0.00 | 0.06 | 0.02 | 72 | 1018.3 |
| 20260505220506 | 46 | 29 | 0.9 | 5.2 | 0.00 | 0.06 | 0.02 | 72 | 1018.3 |
| 20260505220006 | 46 | 29 | 0.9 | 5.2 | 0.00 | 0.06 | 0.02 | 72 | 1018.3 |
| 20260505215506 | 46 | 28 | 0.9 | 5.2 | 0.00 | 0.06 | 0.02 | 72 | 1018.3 |
| 20260505215006 | 46 | 108 | 0.0 | 0.0 | 0.00 | 0.06 | 0.02 | 72 | 1018.3 |
| 20260505214506 | 46 | 108 | 0.0 | 5.2 | 0.00 | 0.06 | 0.02 | 72 | 1018.3 |
| 20260505214006 | 46 | 108 | 0.0 | 5.2 | 0.00 | 0.06 | 0.02 | 72 | 1018.3 |
| 20260505213506 | 46 | 25 | 0.0 | 5.2 | 0.00 | 0.06 | 0.02 | 72 | 1018.3 |
| 20260505213006 | 46 | 12 | 0.0 | 0.0 | 0.00 | 0.06 | 0.02 | 72 | 1018.3 |
| 20260505212006 | 46 | 12 | 0.0 | 0.0 | 0.00 | 0.06 | 0.02 | 72 | 1018.3 |
| 20260505211506 | 46 | 12 | 0.0 | 0.0 | 0.00 | 0.06 | 0.02 | 72 | 1018.3 |
| 20260505211006 | 46 | 12 | 0.0 | 0.0 | 0.00 | 0.06 | 0.02 | 72 | 1018.3 |
| 20260505210506 | 46 | 12 | 0.0 | 0.9 | 0.00 | 0.06 | 0.02 | 72 | 1018.3 |
| 20260505210006 | 46 | 12 | 0.0 | 1.7 | 0.00 | 0.06 | 0.02 | 72 | 1018.3 |
| 20260505205506 | 46 | 12 | 0.0 | 1.7 | 0.00 | 0.06 | 0.02 | 72 | 1018.3 |
| 20260505205006 | 46 | 12 | 0.0 | 2.6 | 0.00 | 0.06 | 0.02 | 72 | 1018.3 |
| 20260505204506 | 46 | 13 | 0.9 | 2.6 | 0.00 | 0.06 | 0.02 | 72 | 1018.3 |
| 20260505204006 | 46 | 33 | 0.9 | 2.6 | 0.00 | 0.06 | 0.02 | 72 | 1018.3 |
| 20260505203006 | 46 | 35 | 0.9 | 2.6 | 0.00 | 0.06 | 0.02 | 72 | 1018.3 |
| 20260505201506 | 46 | 54 | 0.9 | 2.6 | 0.00 | 0.06 | 0.02 | 72 | 1018.3 |
| 20260505200506 | 46 | 47 | 0.9 | 5.2 | 0.00 | 0.06 | 0.02 | 72 | 1018.3 |
| 20260505200006 | 46 | 64 | 0.9 | 5.2 | 0.00 | 0.06 | 0.02 | 72 | 1018.3 |
| 20260505195506 | 46 | 59 | 1.7 | 2.6 | 0.00 | 0.06 | 0.02 | 72 | 1018.3 |
| 20260505195006 | 46 | 62 | 1.7 | 5.2 | 0.00 | 0.06 | 0.02 | 72 | 1018.3 |
| 20260505194506 | 46 | 50 | 0.9 | 5.2 | 0.00 | 0.06 | 0.02 | 72 | 1018.3 |
| 20260505194006 | 46 | 51 | 2.6 | 5.2 | 0.00 | 0.06 | 0.02 | 72 | 1018.3 |
| 20260505193007 | 46 | 55 | 1.7 | 5.2 | 0.00 | 0.06 | 0.02 | 72 | 1018.3 |
| 20260505192506 | 46 | 62 | 2.6 | 5.2 | 0.00 | 0.06 | 0.02 | 72 | 1018.3 |
| 20260505192006 | 46 | 69 | 2.6 | 5.2 | 0.00 | 0.06 | 0.02 | 72 | 1018.3 |
| 20260505191506 | 46 | 65 | 1.7 | 6.1 | 0.00 | 0.06 | 0.02 | 72 | 1018.3 |
| 20260505191006 | 46 | 57 | 2.6 | 6.1 | 0.00 | 0.06 | 0.02 | 72 | 1018.3 |
| 20260505190506 | 46 | 52 | 2.6 | 6.1 | 0.00 | 0.06 | 0.02 | 72 | 1018.3 |
| 20260505190006 | 46 | 65 | 1.7 | 5.2 | 0.00 | 0.06 | 0.02 | 72 | 1018.3 |
| 20260505185506 | 46 | 75 | 0.9 | 5.2 | 0.00 | 0.06 | 0.02 | 72 | 1018.3 |
| 20260505185006 | 46 | 96 | 1.7 | 5.2 | 0.00 | 0.06 | 0.02 | 72 | 1018.3 |
| 20260505184506 | 46 | 70 | 1.7 | 7.0 | 0.00 | 0.06 | 0.02 | 72 | 1018.3 |
| 20260505184006 | 46 | 75 | 2.6 | 7.0 | 0.00 | 0.06 | 0.02 | 72 | 1018.3 |
| 20260505183506 | 46 | 75 | 2.6 | 7.0 | 0.00 | 0.06 | 0.02 | 72 | 1018.3 |
| 20260505183006 | 46 | 70 | 2.6 | 5.2 | 0.00 | 0.06 | 0.02 | 72 | 1018.3 |
| 20260505182506 | 46 | 61 | 1.7 | 4.3 | 0.00 | 0.06 | 0.02 | 72 | 1018.3 |
| 20260505182006 | 46 | 95 | 1.7 | 4.3 | 0.00 | 0.06 | 0.02 | 72 | 1018.3 |
| 20260505181507 | 46 | 113 | 1.7 | 6.1 | 0.00 | 0.06 | 0.02 | 72 | 1018.3 |
| 20260505181006 | 46 | 130 | 2.6 | 6.1 | 0.00 | 0.06 | 0.02 | 72 | 1018.3 |
| 20260505180506 | 46 | 130 | 2.6 | 5.2 | 0.00 | 0.06 | 0.02 | 72 | 1018.3 |
| 20260505180006 | 46 | 96 | 2.6 | 2.6 | 0.00 | 0.06 | 0.02 | 72 | 1018.3 |
| 20260505175506 | 46 | 95 | 0.9 | 6.1 | 0.00 | 0.06 | 0.02 | 72 | 1018.3 |
| 20260505175006 | 46 | 111 | 2.6 | 7.0 | 0.00 | 0.06 | 0.02 | 72 | 1018.3 |
| 20260505174006 | 46 | 109 | 1.7 | 6.1 | 0.00 | 0.06 | 0.02 | 72 | 1018.3 |
| 20260505173507 | 46 | 110 | 4.3 | 7.0 | 0.00 | 0.06 | 0.02 | 72 | 1018.3 |
| 20260505173006 | 46 | 109 | 4.3 | 7.8 | 0.00 | 0.06 | 0.02 | 72 | 1018.3 |
| 20260505172506 | 46 | 112 | 5.2 | 7.8 | 0.00 | 0.06 | 0.02 | 72 | 1018.3 |
| 20260505172006 | 46 | 102 | 2.6 | 6.1 | 0.00 | 0.06 | 0.02 | 72 | 1018.3 |
| 20260505171006 | 46 | 97 | 1.7 | 7.8 | 0.00 | 0.06 | 0.02 | 72 | 1018.3 |
| 20260505170507 | 46 | 106 | 3.5 | 7.8 | 0.00 | 0.06 | 0.02 | 72 | 1018.3 |
| 20260505170005 | 46 | 69 | 2.6 | 7.8 | 0.00 | 0.06 | 0.02 | 72 | 1018.3 |
| 20260505165507 | 46 | 88 | 3.5 | 10.4 | 0.00 | 0.06 | 0.02 | 72 | 1018.3 |
| 20260505165006 | 46 | 112 | 2.6 | 10.4 | 0.00 | 0.06 | 0.02 | 72 | 1018.3 |
| 20260505164006 | 46 | 106 | 3.5 | 7.8 | 0.00 | 0.06 | 0.02 | 72 | 1018.3 |
| 20260505163506 | 46 | 86 | 3.5 | 7.8 | 0.00 | 0.06 | 0.02 | 72 | 1018.3 |
| 20260505163008 | 46 | 86 | 1.7 | 10.4 | 0.00 | 0.06 | 0.02 | 72 | 1018.3 |
| 20260505161006 | 46 | 116 | 4.3 | 7.0 | 0.00 | 0.06 | 0.02 | 72 | 1018.3 |
| 20260505160506 | 46 | 75 | 3.5 | 7.8 | 0.00 | 0.06 | 0.02 | 72 | 1018.3 |
| 20260505152506 | 46 | 111 | 5.2 | 10.4 | 0.00 | 0.06 | 0.02 | 72 | 1018.3 |
| 20260505152006 | 46 | 120 | 7.0 | 10.4 | 0.00 | 0.06 | 0.02 | 72 | 1018.3 |
| 20260505151505 | 46 | 109 | 6.1 | 10.4 | 0.00 | 0.06 | 0.02 | 72 | 1018.3 |
| 20260505151006 | 46 | 125 | 5.2 | 10.4 | 0.00 | 0.06 | 0.02 | 72 | 1018.3 |
| 20260505140506 | 46 | 119 | 5.2 | 10.4 | 0.00 | 0.08 | 0.02 | 72 | 1018.3 |
| 20260505125006 | 46 | 121 | 4.3 | 10.4 | 0.00 | 0.08 | 0.02 | 72 | 1018.3 |